Miscellaneous Local Product
Issued by NWS North Platte, NE

Home | Current Version | Previous Version | Text Only | Print | Product List | Glossary On
Versions: 1 2 3 4 5 6 7 8 9 10 11 12 13 14 15 16 17 18 19 20 21 22 23 24 25 26 27 28 29 30 31 32 33 34 35 36 37 38 39 40 41 42 43 44 45 46 47 48 49 50
000
AXUS43 KLBF 161510
MISLBF


WESTERN AND NORTH CENTRAL NEBRASKA HOURLY WEATHER ROUNDUP
NATIONAL WEATHER SERVICE NORTH PLATTE NE
900 AM CST MON JAN 16 2017

NOTE: "FAIR" INDICATES FEW OR NO CLOUDS BELOW 12,000 FEET WITH NO
SIGNIFICANT WEATHER AND/OR OBSTRUCTIONS TO VISIBILITY.

NOTE: STATIONS NOT REPORTING VARIABLES SUCH AS SKY/WEATHER OR
PRESSURE ARE PROVIDED BY RAWS AND APRS NETWORKS AND ARE NOT UNDER
NATIONAL WEATHER SERVICE QUALITY CONTROL.

...OBSERVATIONS IN AND NEAR THE EASTERN PANHANDLE OF NEBRASKA...

CITY           SKY/WX    TMP DP  RH WIND       PRES   REMARKS
PINE RIDGE     CLOUDY    18  17  96 W3        30.09R
CHADRON        CLOUDY    25  16  68 W6        30.11R WCI  18
ALLIANCE       CLOUDY    30  20  66 N13       30.03R WCI  20
SIDNEY         CLOUDY    32  24  72 N16       29.99R WCI  21
CRESCENT LAKE    N/A     30  25  83 N16G23      N/A  WCI  19
$$

...OBSERVATIONS IN NORTHERN NEBRASKA AND FAR SOUTHERN SOUTH DAKOTA...

CITY           SKY/WX    TMP DP  RH WIND       PRES   REMARKS
WINNER         FAIR      20  16  84 NW3       30.08S
VALENTINE      MOCLDY    27  19  72 N12       30.04S WCI  17
THEDFORD       DRIZZLE   33  32  98 N7        29.99S WCI  26
AINSWORTH      CLOUDY    28  26  92 N9        30.03R WCI  19
O`NEILL        MIX PCPN  32  31  98 N12       30.01S WCI  23
ORD            LGT SNOW  32  30  92 N13       29.96S VSB 1   WCI  22
BROKEN BOW     MIX PCPN  33  31  92 N14       29.95R FOG     WCI  23
VALENTINE NWR    N/A     29  26  87 N8          N/A  WCI  21
BUTTE            N/A     24  20  85 W7          N/A  WCI  16
HALSEY           N/A     31  31 100 N6          N/A  WCI  25
SARGENT          N/A     32  23  69 CALM        N/A
CHAMBERS         N/A     32  31  95 S3          N/A
EWING            N/A     31  30  96 NE5         N/A  WCI  26
$$

...OBSERVATIONS IN SOUTHWEST NEBRASKA AND FAR NORTHEAST COLORADO...

CITY           SKY/WX    TMP DP  RH WIND       PRES   REMARKS
WRAY           LGT SNOW N/A N/A N/A N14       29.94
HOLYOKE        LGT SNOW  34  32  93 N17G23    29.96R WCI  23
IMPERIAL       LGT RAIN  33  31  92 N18       29.93R FOG     WCI  22
OGALLALA       LGT RAIN  34  33  94 N13G18    29.97R WCI  25
NORTH PLATTE   LGT RAIN  33  31  92 N7        29.95R FOG     WCI  27
MCCOOK         LGT RAIN  33  32  96 N12       29.92R FOG     WCI  24
LEXINGTON      DRIZZLE   33  32  95 N10       29.93R WCI  25
STAPLETON        N/A     31  30  96 CALM        N/A
GOTHENBURG       N/A     32  31  96 CALM        N/A
CALLAWAY         N/A     31  30  96 N6          N/A  WCI  25
$$

...OBSERVATIONS IN CENTRAL LINCOLN COUNTY AREA...

CITY           SKY/WX    TMP DP  RH WIND       PRES   REMARKS
N.P. AIRPORT   LGT RAIN  33  31  92 N7        29.95R FOG     WCI  27
N.P. DOWNTOWN    N/A     32  32  99 N3          N/A
N.P. SOUTHEAST   N/A     32  31  97 S3          N/A
N.P. HILLCREST   N/A     32  31  96 N12         N/A  WCI  23
$$

...SOME OBSERVATIONS FROM AROUND THE REGION...

CITY           SKY/WX    TMP DP  RH WIND       PRES   REMARKS
LARAMIE        CLOUDY    20  17  88 CALM      30.05R
CHEYENNE       CLOUDY    31  15  52 N14       30.02R WCI  21
DENVER         LGT SNOW  29  26  89 NW16      30.03R VSB 3/4 WCI  17
AKRON          LGT SNOW  28  26  92 N18       29.96R FOG     WCI  15
SCOTTSBLUFF    CLOUDY    34  21  59 NW8       30.05R WCI  27
RAPID CITY     CLOUDY    27   9  46 N18       30.08R WCI  14
BISMARCK       CLOUDY    -6 -11  79 CALM      30.09S
PIERRE         CLOUDY     8   4  83 SW5       30.09S WCI   0
SIOUX FALLS    CLOUDY    24  20  84 NE3       30.07R
OMAHA          LGT RAIN  33  29  85 NE6       29.99S FOG     WCI  28
GRAND ISLAND   FRZ RAIN  31  31 100 NE16      29.94R FOG     WCI  20
KANSAS CITY    LGT RAIN  37  35  92 E13       29.89F VSB 1/8 WCI  29
WICHITA        FOG       39  39 100 S12       29.82R VSB 1/2 WCI  32
OKLAHOMA CITY  CLOUDY    40  38  93 SW17G25   29.92R WCI  31
DALLAS         FOG       48  48 100 NW8       29.98R VSB 1/4
DODGE CITY     CLOUDY    31  31 100 N14       29.84R FOG     WCI  21
HAYS           CLOUDY    32  31  96 N14       29.85R WCI  22
GOODLAND       FRZ RAIN  32  31  96 N17       29.88R WCI  21
$$




USA.gov is the U.S. government's official web portal to all federal, state and local government web resources and services.